Location: *
(30.4476°N, 114.3798°E)
Time: 00:46:33
(UTC+00:00)

Okean 2 Rocket - Pass Details

Date: 09 April 2020
Orbit: 617 x 641 km, 82.5° (Epoch: 27 May)

Event Time Altitude Azimuth Distance (km) Brightness Sun altitude
Rises 20:26:50 0° 342° (NNW) 2,945 6.6 -20.3°
Reaches altitude 10° 20:29:14 10° 333° (NNW) 2,034 5.7 -19.8°
Enters shadow 20:32:13 29° 297° (WNW) 1,170 4.1 -19.2°
